Flag for Germany Weather past 2 weeks in Kassel, Hesse, Germany

Now
50 °F

Passing clouds.


Feels Like: 47 °F
Forecast: 46 / 63 °F
Wind: 7 mph from Southeast

Location: Kassel / Calden

Current Time: May 28, 2015 at 7:03:46 AM

Latest Report: May 28, 2015 at 6:20 AM


Visibility: N/A

Pressure: 30.01 "Hg

Humidity: 62%

Dew point: 37 °F

Location of KasselLocation

Historic Weather in Kassel — Graph

°F

Kassel temperature yesterday

Maximum temperature yesterday: 57 °F (at 5:50 PM)
Minimum temperature yesterday: 45 °F (at 6:20 AM)
Average temperature yesterday: 52 °F

Past Weeks' High & Low Weather Summary

 TemperatureHumidityPressure
High68 °F (May 18, 3:50 PM)100% (May 25, 7:20 AM)30.33 "Hg (May 25, 7:20 AM)
Low37 °F (May 16, 5:50 AM)34% (May 22, 3:20 PM)29.65 "Hg (May 18, 7:20 PM)
Average55 °F64%30.05 "Hg
* Reported May 12 9:20 PM — May 27 9:50 PM, Kassel, Weather by CustomWeather, © 2015

Note: Actual official high and low records may vary slightly from our data, if they occured in-between our weather recording intervals... More about our weather records

Advertising

Kassel weather history for previous 24 hours

 ConditionsComfort  
Time TempWeatherWind HumidityBarometerVisibility
9:50 PM
Wed, May 27
48 °FSunny.3 mph71%30.12 "Hg10 mi
9:20 PM50 °FSunny.5 mph67%30.12 "Hg10 mi
8:50 PM54 °FSunny.5 mph58%30.12 "Hg10 mi
8:20 PM55 °FPassing clouds.3 mph55%30.15 "HgN/A
7:50 PM55 °FPassing clouds.3 mph55%30.15 "HgN/A
7:20 PM55 °FPassing clouds.3 mph51%30.15 "HgN/A
6:50 PM55 °FSunny.7 mph51%30.15 "Hg10 mi
6:20 PM57 °FPassing clouds.7 mph48%30.18 "HgN/A
5:50 PM57 °FPartly sunny.5 mph51%30.18 "HgN/A
5:20 PM55 °FPartly sunny.8 mph51%30.18 "HgN/A
4:50 PM55 °FPartly sunny.9 mph51%30.18 "HgN/A
4:20 PM55 °FPartly sunny.8 mph55%30.18 "HgN/A
3:50 PM55 °FPartly sunny.9 mph55%30.18 "HgN/A
3:20 PM54 °FPartly sunny.9 mph58%30.21 "HgN/A
2:50 PM54 °FBroken clouds.9 mph58%30.21 "HgN/A
2:20 PM54 °FBroken clouds.12 mph54%30.21 "HgN/A
1:50 PM54 °FPartly sunny.12 mph58%30.21 "HgN/A
1:20 PM54 °FBroken clouds.12 mph58%30.21 "HgN/A
12:50 PM52 °FMore clouds than sun.10 mph62%30.21 "HgN/A
12:20 PM52 °FMore clouds than sun.12 mph67%30.21 "HgN/A
11:50 AM54 °FMore clouds than sun.13 mph63%30.21 "HgN/A
11:20 AM52 °FMore clouds than sun.14 mph72%30.21 "HgN/A
10:50 AM50 °FMore clouds than sun.12 mph71%30.24 "HgN/A
10:20 AM50 °FMore clouds than sun.10 mph71%30.24 "HgN/A
9:50 AM50 °FMostly cloudy.8 mph76%30.24 "HgN/A
9:20 AM48 °FOvercast.8 mph76%30.24 "HgN/A
8:50 AM48 °FPartly sunny.7 mph82%30.24 "HgN/A
8:20 AM46 °FOvercast.8 mph82%30.24 "HgN/A
7:50 AM46 °FPartly sunny.5 mph82%30.21 "HgN/A
7:20 AM46 °FPartly sunny.5 mph82%30.21 "HgN/A
Weather by CustomWeather, © 2015

See weather overviewHow to use our weather pages